"Period start","avg(HW err(1)/warn(2) (#))","avg(Visibility (m))","avg(Weather code (#))","avg(Precip intensity (mm/h))","min(HW err(1)/warn(2) (#))","max(HW err(1)/warn(2) (#))","std(HW err(1)/warn(2) (#))","med(HW err(1)/warn(2) (#))","min(Visibility (m))","max(Visibility (m))","std(Visibility (m))","med(Visibility (m))","min(Weather code (#))","max(Weather code (#))","std(Weather code (#))","med(Weather code (#))","min(Precip intensity (mm/h))","max(Precip intensity (mm/h))","std(Precip intensity (mm/h))","med(Precip intensity (mm/h))"
2014-10-31 00:00:00,2,50000,0,0.00,2,2,0,2,50000,50000,0,50000,0,0,0,0,0.00,0.00,0.00,0.00
2014-10-31 00:10:00,2,50000,0,0.00,2,2,0,2,50000,50000,0,50000,0,0,0,0,0.00,0.00,0.00,0.00
2014-10-31 00:20:00,2,50000,0,0.00,2,2,0,2,50000,50000,0,50000,0,0,0,0,0.00,0.00,0.00,0.00
2014-10-31 00:30:00,2,49762,0,0.00,2,2,0,2,47620,50000,714,50000,0,0,0,0,0.00,0.00,0.00,0.00
2014-10-31 00:40:00,2,49757,0,0.00,2,2,0,2,47811,50000,653,50000,0,0,0,0,0.00,0.00,0.00,0.00
2014-10-31 00:50:00,2,50000,0,0.00,2,2,0,2,50000,50000,0,50000,0,0,0,0,0.00,0.00,0.00,0.00
2014-10-31 01:00:00,2,49742,0,0.00,2,2,0,2,47602,50000,715,50000,0,0,0,0,0.00,0.00,0.00,0.00
2014-10-31 01:10:00,2,48657,0,0.00,2,2,0,2,42054,50000,2741,50000,0,0,0,0,0.00,0.00,0.00,0.00
2014-10-31 01:20:00,2,48458,0,0.00,2,2,0,2,44840,50000,1694,48943,0,0,0,0,0.00,0.00,0.00,0.00
2014-10-31 01:30:00,2,48877,0,0.00,2,2,0,2,46226,50000,1554,50000,0,0,0,0,0.00,0.00,0.00,0.00
2014-10-31 01:40:00,2,49823,0,0.00,2,2,0,2,48373,50000,485,50000,0,0,0,0,0.00,0.00,0.00,0.00
2014-10-31 01:50:00,2,48721,0,0.00,2,2,0,2,43336,50000,2051,50000,0,0,0,0,0.00,0.00,0.00,0.00
2014-10-31 02:00:00,2,50000,0,0.00,2,2,0,2,50000,50000,0,50000,0,0,0,0,0.00,0.00,0.00,0.00
2014-10-31 02:10:00,2,49464,0,0.00,2,2,0,2,45452,50000,1359,50000,0,0,0,0,0.00,0.00,0.00,0.00
2014-10-31 02:20:00,2,49887,0,0.00,2,2,0,2,49341,50000,229,50000,0,0,0,0,0.00,0.00,0.00,0.00
2014-10-31 02:30:00,2,49564,0,0.00,2,2,0,2,47158,50000,827,49886,0,0,0,0,0.00,0.00,0.00,0.00
2014-10-31 02:40:00,2,48695,0,0.00,2,2,0,2,44949,50000,2024,50000,0,0,0,0,0.00,0.00,0.00,0.00
2014-10-31 02:50:00,2,49295,0,0.00,2,2,0,2,47465,50000,1042,50000,0,0,0,0,0.00,0.00,0.00,0.00
2014-10-31 03:00:00,2,49776,0,0.00,2,2,0,2,47849,50000,643,50000,0,0,0,0,0.00,0.00,0.00,0.00
2014-10-31 03:10:00,2,49367,0,0.00,2,2,0,2,47098,50000,1100,50000,0,0,0,0,0.00,0.00,0.00,0.00
2014-10-31 03:20:00,2,48064,0,0.00,2,2,0,2,43729,50000,2382,49434,0,0,0,0,0.00,0.00,0.00,0.00
2014-10-31 03:30:00,2,49446,0,0.00,2,2,0,2,46037,50000,1229,50000,0,0,0,0,0.00,0.00,0.00,0.00
2014-10-31 03:40:00,2,47742,0,0.00,2,2,0,2,41228,50000,2998,49287,0,0,0,0,0.00,0.00,0.00,0.00
2014-10-31 03:50:00,2,48744,0,0.00,2,2,0,2,43015,50000,2153,50000,0,0,0,0,0.00,0.00,0.00,0.00
2014-10-31 04:00:00,2,50000,0,0.00,2,2,0,2,50000,50000,0,50000,0,0,0,0,0.00,0.00,0.00,0.00
2014-10-31 04:10:00,2,48636,0,0.00,2,2,0,2,44491,50000,1893,49876,0,0,0,0,0.00,0.00,0.00,0.00
2014-10-31 04:20:00,2,49307,0,0.00,2,2,0,2,44881,50000,1538,50000,0,0,0,0,0.00,0.00,0.00,0.00
2014-10-31 04:30:00,2,49720,0,0.00,2,2,0,2,49058,50000,334,49870,0,0,0,0,0.00,0.00,0.00,0.00
2014-10-31 04:40:00,2,50000,0,0.00,2,2,0,2,50000,50000,0,50000,0,0,0,0,0.00,0.00,0.00,0.00
2014-10-31 04:50:00,2,49854,0,0.00,2,2,0,2,49058,50000,307,50000,0,0,0,0,0.00,0.00,0.00,0.00
2014-10-31 05:00:00,2,48111,0,0.00,2,2,0,2,44290,50000,2062,48692,0,0,0,0,0.00,0.00,0.00,0.00
2014-10-31 05:10:00,2,49676,0,0.00,2,2,0,2,47636,50000,728,50000,0,0,0,0,0.00,0.00,0.00,0.00
2014-10-31 05:20:00,2,50000,0,0.00,2,2,0,2,50000,50000,0,50000,0,0,0,0,0.00,0.00,0.00,0.00
2014-10-31 05:30:00,2,49340,0,0.00,2,2,0,2,45726,50000,1376,50000,0,0,0,0,0.00,0.00,0.00,0.00
2014-10-31 05:40:00,2,50000,0,0.00,2,2,0,2,50000,50000,0,50000,0,0,0,0,0.00,0.00,0.00,0.00
2014-10-31 05:50:00,2,49825,0,0.00,2,2,0,2,48254,50000,524,50000,0,0,0,0,0.00,0.00,0.00,0.00
2014-10-31 06:00:00,2,49864,0,0.00,2,2,0,2,48636,50000,409,50000,0,0,0,0,0.00,0.00,0.00,0.00
2014-10-31 06:10:00,2,50000,0,0.00,2,2,0,2,50000,50000,0,50000,0,0,0,0,0.00,0.00,0.00,0.00
2014-10-31 06:20:00,2,50000,0,0.00,2,2,0,2,50000,50000,0,50000,0,0,0,0,0.00,0.00,0.00,0.00
2014-10-31 06:30:00,2,50000,0,0.00,2,2,0,2,50000,50000,0,50000,0,0,0,0,0.00,0.00,0.00,0.00
2014-10-31 06:40:00,2,50000,0,0.00,2,2,0,2,50000,50000,0,50000,0,0,0,0,0.00,0.00,0.00,0.00
2014-10-31 06:50:00,2,50000,0,0.00,2,2,0,2,50000,50000,0,50000,0,0,0,0,0.00,0.00,0.00,0.00
2014-10-31 07:00:00,2,50000,0,0.00,2,2,0,2,50000,50000,0,50000,0,0,0,0,0.00,0.00,0.00,0.00
2014-10-31 07:10:00,2,50000,0,0.00,2,2,0,2,50000,50000,0,50000,0,0,0,0,0.00,0.00,0.00,0.00
2014-10-31 07:20:00,2,50000,0,0.00,2,2,0,2,50000,50000,0,50000,0,0,0,0,0.00,0.00,0.00,0.00
2014-10-31 07:30:00,2,50000,0,0.00,2,2,0,2,50000,50000,0,50000,0,0,0,0,0.00,0.00,0.00,0.00
2014-10-31 07:40:00,2,49999,0,0.00,2,2,0,2,49992,50000,2,50000,0,0,0,0,0.00,0.00,0.00,0.00
2014-10-31 07:50:00,2,49326,0,0.00,2,2,0,2,46810,50000,1098,50000,0,0,0,0,0.00,0.00,0.00,0.00
2014-10-31 08:00:00,2,46195,0,0.00,2,2,0,2,39287,50000,3955,47382,0,0,0,0,0.00,0.00,0.00,0.00
2014-10-31 08:10:00,2,49727,0,0.00,2,2,0,2,47716,50000,683,50000,0,0,0,0,0.00,0.00,0.00,0.00
2014-10-31 08:20:00,2,49773,0,0.00,2,2,0,2,48841,50000,382,50000,0,0,0,0,0.00,0.00,0.00,0.00
2014-10-31 08:30:00,2,25161,0,0.00,2,2,0,2,17893,46639,10155,19420,0,0,0,0,0.00,0.00,0.00,0.00
2014-10-31 08:40:00,2,30120,0,0.00,2,2,0,2,22465,39135,5923,31344,0,0,0,0,0.00,0.00,0.00,0.00
2014-10-31 08:50:00,2,38409,0,0.00,2,2,0,2,30573,44047,3844,38992,0,0,0,0,0.00,0.00,0.00,0.00
2014-10-31 09:00:00,2,19102,7,0.00,2,2,0,2,14253,27104,3973,19148,0,71,21,0,0.00,0.00,0.00,0.00
2014-10-31 09:10:00,2,23202,46,0.00,2,2,0,2,20857,26690,2167,22117,0,78,38,74,0.00,0.00,0.00,0.00
2014-10-31 09:20:00,2,31686,0,0.00,2,2,0,2,23788,41595,5250,30470,0,0,0,0,0.00,0.00,0.00,0.00
2014-10-31 09:30:00,2,21015,0,0.00,2,2,0,2,15524,29737,3960,19442,0,0,0,0,0.00,0.00,0.00,0.00
2014-10-31 09:40:00,2,13550,7,0.00,2,2,0,2,11295,15636,1568,13692,0,71,21,0,0.00,0.00,0.00,0.00
2014-10-31 09:50:00,2,11152,77,0.00,2,2,0,2,9381,12804,1223,10918,71,78,2,78,0.00,0.00,0.00,0.00
2014-10-31 10:00:00,2,9889,78,0.00,2,2,0,2,8914,11391,808,9597,77,78,0,78,0.00,0.00,0.00,0.00
2014-10-31 10:10:00,2,13572,78,0.00,2,2,0,2,11024,15955,1531,13690,77,78,0,78,0.00,0.00,0.00,0.00
2014-10-31 10:20:00,2,15094,8,0.00,2,2,0,2,13727,16711,980,15146,0,78,23,0,0.00,0.00,0.00,0.00
2014-10-31 10:30:00,2,18712,0,0.00,2,2,0,2,17072,20742,1082,18835,0,0,0,0,0.00,0.00,0.00,0.00
2014-10-31 10:40:00,2,19968,0,0.00,2,2,0,2,15596,25133,2701,19536,0,0,0,0,0.00,0.00,0.00,0.00
2014-10-31 10:50:00,2,23333,0,0.00,2,2,0,2,21377,26257,1688,22980,0,0,0,0,0.00,0.00,0.00,0.00
2014-10-31 11:00:00,2,24034,0,0.00,2,2,0,2,20852,27713,2413,24674,0,0,0,0,0.00,0.00,0.00,0.00
2014-10-31 11:10:00,2,30222,0,0.00,2,2,0,2,24023,38259,3909,29750,0,0,0,0,0.00,0.00,0.00,0.00
2014-10-31 11:20:00,2,33610,0,0.00,2,2,0,2,28592,40325,3452,33294,0,0,0,0,0.00,0.00,0.00,0.00
2014-10-31 11:30:00,2,38189,0,0.00,2,2,0,2,31930,44643,3575,39320,0,0,0,0,0.00,0.00,0.00,0.00
2014-10-31 11:40:00,2,33697,0,0.00,2,2,0,2,28198,39528,3530,34264,0,0,0,0,0.00,0.00,0.00,0.00
2014-10-31 11:50:00,2,35766,0,0.00,2,2,0,2,28204,43069,4965,33996,0,0,0,0,0.00,0.00,0.00,0.00
2014-10-31 12:00:00,2,40622,0,0.00,2,2,0,2,33030,48318,4050,40712,0,0,0,0,0.00,0.00,0.00,0.00
2014-10-31 12:10:00,2,47968,0,0.00,2,2,0,2,43029,50000,2186,48844,0,0,0,0,0.00,0.00,0.00,0.00
2014-10-31 12:20:00,2,48666,0,0.00,2,2,0,2,43444,50000,1968,49542,0,0,0,0,0.00,0.00,0.00,0.00
2014-10-31 12:30:00,2,49302,0,0.00,2,2,0,2,44962,50000,1558,50000,0,0,0,0,0.00,0.00,0.00,0.00
2014-10-31 12:40:00,2,42395,0,0.00,2,2,0,2,26388,50000,8551,46656,0,0,0,0,0.00,0.00,0.00,0.00
2014-10-31 12:50:00,2,22476,0,0.00,2,2,0,2,10997,36614,7199,20086,0,0,0,0,0.00,0.00,0.00,0.00
2014-10-31 13:00:00,2,11357,0,0.00,2,2,0,2,4561,18012,3748,10236,0,0,0,0,0.00,0.00,0.00,0.00
2014-10-31 13:10:00,2,20884,0,0.00,2,2,0,2,9837,32844,8141,21842,0,0,0,0,0.00,0.00,0.00,0.00
2014-10-31 13:20:00,2,22534,0,0.00,2,2,0,2,5579,36355,8746,22958,0,0,0,0,0.00,0.00,0.00,0.00
2014-10-31 13:30:00,2,33812,0,0.00,2,2,0,2,28052,38649,3229,34250,0,0,0,0,0.00,0.00,0.00,0.00
2014-10-31 13:40:00,2,26311,0,0.00,2,2,0,2,9007,41321,10280,27892,0,0,0,0,0.00,0.00,0.00,0.00
2014-10-31 13:50:00,2,18089,38,0.00,2,2,0,2,12561,23848,3835,18872,0,78,38,36,0.00,0.00,0.00,0.00
2014-10-31 14:00:00,2,17330,78,0.00,2,2,0,2,14215,19854,2205,18496,78,78,0,78,0.00,0.00,0.00,0.00
2014-10-31 14:10:00,2,14240,78,0.00,2,2,0,2,6179,20079,4518,15794,78,78,0,78,0.00,0.00,0.00,0.00
2014-10-31 14:20:00,2,12036,30,0.00,2,2,0,2,6368,18366,3098,11782,0,78,37,0,0.00,0.00,0.00,0.00
2014-10-31 14:30:00,2,24159,78,0.00,2,2,0,2,19769,33086,4018,23113,78,78,0,78,0.00,0.00,0.00,0.00
2014-10-31 14:40:00,2,27118,78,0.01,2,2,0,2,17233,35782,6094,29420,78,78,0,78,0.00,0.05,0.02,0.00
2014-10-31 14:50:00,2,39608,8,0.00,2,2,0,2,32839,45096,3886,39302,0,78,23,0,0.00,0.00,0.00,0.00
2014-10-31 15:00:00,2,46152,0,0.00,2,2,0,2,38083,50000,3385,46782,0,0,0,0,0.00,0.00,0.00,0.00
2014-10-31 15:10:00,2,49441,0,0.00,2,2,0,2,46915,50000,1071,50000,0,0,0,0,0.00,0.00,0.00,0.00
2014-10-31 15:20:00,2,47035,0,0.00,2,2,0,2,41322,50000,2693,47492,0,0,0,0,0.00,0.00,0.00,0.00
2014-10-31 15:30:00,2,47681,0,0.00,2,2,0,2,44762,50000,1837,47414,0,0,0,0,0.00,0.00,0.00,0.00
2014-10-31 15:40:00,2,34228,0,0.00,2,2,0,2,30407,38886,2746,33260,0,0,0,0,0.00,0.00,0.00,0.00
2014-10-31 15:50:00,2,38315,0,0.00,2,2,0,2,26691,46543,6023,40222,0,0,0,0,0.00,0.00,0.00,0.00
2014-10-31 16:00:00,2,46794,0,0.00,2,2,0,2,41864,50000,3057,47386,0,0,0,0,0.00,0.00,0.00,0.00
2014-10-31 16:10:00,2,42135,0,0.00,2,2,0,2,32905,50000,5849,41506,0,0,0,0,0.00,0.00,0.00,0.00
2014-10-31 16:20:00,2,34480,0,0.00,2,2,0,2,17580,41616,7046,36214,0,0,0,0,0.00,0.00,0.00,0.00
2014-10-31 16:30:00,2,15678,0,0.00,2,2,0,2,10148,27955,5485,13956,0,0,0,0,0.00,0.00,0.00,0.00
2014-10-31 16:40:00,2,41031,0,0.00,2,2,0,2,28867,49917,6565,42139,0,0,0,0,0.00,0.00,0.00,0.00
2014-10-31 16:50:00,2,39824,0,0.00,2,2,0,2,33473,45799,4332,41270,0,0,0,0,0.00,0.00,0.00,0.00
2014-10-31 17:00:00,2,37209,0,0.00,2,2,0,2,31071,43355,3415,37997,0,0,0,0,0.00,0.00,0.00,0.00
2014-10-31 17:10:00,2,26580,0,0.00,2,2,0,2,21156,32824,3423,25386,0,0,0,0,0.00,0.00,0.00,0.00
2014-10-31 17:20:00,2,32093,0,0.00,2,2,0,2,25791,34472,2902,33728,0,0,0,0,0.00,0.00,0.00,0.00
2014-10-31 17:30:00,2,17326,0,0.00,2,2,0,2,9119,28187,5101,16122,0,0,0,0,0.00,0.00,0.00,0.00
2014-10-31 17:40:00,2,8878,4,0.00,2,2,0,2,4846,13796,2252,8618,0,10,5,0,0.00,0.00,0.00,0.00
2014-10-31 17:50:00,2,11013,8,0.00,2,2,0,2,9086,13771,1727,10330,0,10,4,10,0.00,0.00,0.00,0.00
2014-10-31 18:00:00,2,7851,4,0.00,2,2,0,2,5212,13535,2503,7352,0,10,5,0,0.00,0.00,0.00,0.00
2014-10-31 18:10:00,2,9137,10,0.00,2,2,0,2,4107,15502,3336,9284,10,10,0,10,0.00,0.00,0.00,0.00
2014-10-31 18:20:00,2,8450,10,0.00,2,2,0,2,4453,13256,2581,8366,10,10,0,10,0.00,0.00,0.00,0.00
2014-10-31 18:30:00,2,17353,9,0.00,2,2,0,2,9158,26328,5363,18805,0,10,3,10,0.00,0.00,0.00,0.00
2014-10-31 18:40:00,2,32301,0,0.00,2,2,0,2,14198,48038,12181,34168,0,0,0,0,0.00,0.00,0.00,0.00
2014-10-31 18:50:00,2,48602,0,0.00,2,2,0,2,41558,50000,2487,49750,0,0,0,0,0.00,0.00,0.00,0.00
2014-10-31 19:00:00,2,49760,0,0.00,2,2,0,2,48016,50000,594,50000,0,0,0,0,0.00,0.00,0.00,0.00
2014-10-31 19:10:00,2,50000,0,0.00,2,2,0,2,50000,50000,0,50000,0,0,0,0,0.00,0.00,0.00,0.00
2014-10-31 19:20:00,2,49721,0,0.00,2,2,0,2,47925,50000,615,50000,0,0,0,0,0.00,0.00,0.00,0.00
2014-10-31 19:30:00,2,49856,0,0.00,2,2,0,2,48561,50000,432,50000,0,0,0,0,0.00,0.00,0.00,0.00
2014-10-31 19:40:00,2,48006,0,0.00,2,2,0,2,39651,50000,3167,49958,0,0,0,0,0.00,0.00,0.00,0.00
2014-10-31 19:50:00,2,49964,0,0.00,2,2,0,2,49644,50000,107,50000,0,0,0,0,0.00,0.00,0.00,0.00
2014-10-31 20:00:00,2,22866,0,0.00,2,2,0,2,10415,49356,11305,19437,0,0,0,0,0.00,0.00,0.00,0.00
2014-10-31 20:10:00,2,20604,30,0.02,2,2,0,2,6884,40137,12373,16016,0,78,37,0,0.00,0.10,0.03,0.00
2014-10-31 20:20:00,2,15669,70,0.02,2,2,0,2,5043,30284,8430,15336,0,78,23,78,0.00,0.10,0.03,0.00
2014-10-31 20:30:00,2,16089,45,0.01,2,2,0,2,8947,30515,5583,14847,0,78,37,71,0.00,0.10,0.03,0.00
2014-10-31 20:40:00,2,32352,78,0.00,2,2,0,2,13522,46983,9197,32523,78,78,0,78,0.00,0.00,0.00,0.00
2014-10-31 20:50:00,2,47703,23,0.00,2,2,0,2,35051,50000,4502,49939,0,78,36,0,0.00,0.00,0.00,0.00
2014-10-31 21:00:00,2,48834,0,0.00,2,2,0,2,43240,50000,2306,50000,0,0,0,0,0.00,0.00,0.00,0.00
2014-10-31 21:10:00,2,48083,0,0.00,2,2,0,2,40188,50000,3638,50000,0,0,0,0,0.00,0.00,0.00,0.00
2014-10-31 21:20:00,2,49445,0,0.00,2,2,0,2,45679,50000,1289,50000,0,0,0,0,0.00,0.00,0.00,0.00
2014-10-31 21:30:00,2,49762,0,0.00,2,2,0,2,48460,50000,465,50000,0,0,0,0,0.00,0.00,0.00,0.00
2014-10-31 21:40:00,2,49378,0,0.00,2,2,0,2,47813,50000,835,50000,0,0,0,0,0.00,0.00,0.00,0.00
2014-10-31 21:50:00,2,27367,53,0.00,2,2,0,2,18463,44555,7506,26064,0,78,35,74,0.00,0.00,0.00,0.00
2014-10-31 22:00:00,2,25916,78,0.02,2,2,0,2,18136,32032,4188,26404,77,78,0,78,0.00,0.05,0.02,0.00
2014-10-31 22:10:00,2,13682,76,0.05,2,2,0,2,8304,33119,6894,11317,71,78,3,77,0.00,0.15,0.04,0.05
2014-10-31 22:20:00,2,8686,78,0.06,2,2,0,2,7168,11628,1232,8387,78,78,0,78,0.00,0.10,0.03,0.05
2014-10-31 22:30:00,2,14510,78,0.00,2,2,0,2,10267,18994,2879,14516,78,78,0,78,0.00,0.00,0.00,0.00
2014-10-31 22:40:00,2,18371,78,0.00,2,2,0,2,14772,24029,3527,16916,78,78,0,78,0.00,0.00,0.00,0.00
2014-10-31 22:50:00,2,22195,78,0.00,2,2,0,2,10274,38804,10863,17686,78,78,0,78,0.00,0.00,0.00,0.00
2014-10-31 23:00:00,2,39849,62,0.00,2,2,0,2,28985,50000,5941,39225,0,78,31,78,0.00,0.00,0.00,0.00
2014-10-31 23:10:00,2,36479,0,0.00,2,2,0,2,20346,50000,9716,33611,0,0,0,0,0.00,0.00,0.00,0.00
2014-10-31 23:20:00,2,29164,0,0.00,2,2,0,2,16028,40196,8349,31614,0,0,0,0,0.00,0.00,0.00,0.00
2014-10-31 23:30:00,2,29133,0,0.00,2,2,0,2,8606,50000,14883,29878,0,0,0,0,0.00,0.00,0.00,0.00
2014-10-31 23:40:00,2,48561,0,0.00,2,2,0,2,45192,50000,1935,49884,0,0,0,0,0.00,0.00,0.00,0.00
2014-10-31 23:50:00,2,48493,0,0.00,2,2,0,2,40411,50000,2963,50000,0,0,0,0,0.00,0.00,0.00,0.00
